Time,TemperatureF,DewpointF,PressureIn,WindDirection,WindDirectionDegrees,WindSpeedMPH,WindSpeedGustMPH,Humidity,HourlyPrecipIn,Conditions,Clouds,dailyrainin,SoftwareType,DateUTC
2012-09-07 07:25:00,54.3,32.3,29.90,SW,225,1.0,5.0,43,0.00,,---,0.00,VWS V14.01,2012-09-07 13:25:00,
2012-09-07 07:36:00,55.7,33.6,29.87,SSE,161,5.0,5.0,43,0.00,,---,0.00,VWS V14.01,2012-09-07 13:36:00,
2012-09-07 07:37:00,55.8,33.7,29.87,SE,136,5.0,7.0,43,0.00,,---,0.00,VWS V14.01,2012-09-07 13:37:00,
2012-09-07 07:42:00,55.8,34.2,29.88,SE,145,5.0,13.0,44,0.00,,---,0.00,VWS V14.01,2012-09-07 13:42:00,
2012-09-07 07:47:00,55.8,34.8,29.88,South,180,1.0,6.0,45,0.00,,---,0.00,VWS V14.01,2012-09-07 13:47:00,
2012-09-07 07:52:00,55.5,34.5,29.88,SE,129,0.0,14.0,45,0.00,,---,0.00,VWS V14.01,2012-09-07 13:52:00,
2012-09-07 07:57:00,55.3,34.9,29.89,SSE,159,1.0,10.0,46,0.00,,---,0.00,VWS V14.01,2012-09-07 13:57:00,
2012-09-07 08:02:00,55.1,35.2,29.90,SE,142,0.0,8.0,47,0.00,,---,0.00,VWS V14.01,2012-09-07 14:02:00,
2012-09-07 08:07:00,54.9,35.1,29.93,SSE,148,0.0,7.0,47,0.00,,---,0.00,VWS V14.01,2012-09-07 14:07:00,
2012-09-07 08:13:00,54.9,35.1,29.93,SE,139,0.0,11.0,47,0.00,,---,0.00,VWS V14.01,2012-09-07 14:13:00,
2012-09-07 08:18:00,55.0,35.2,29.94,SE,140,1.0,10.0,47,0.00,,---,0.00,VWS V14.01,2012-09-07 14:18:00,
2012-09-07 08:23:00,55.1,35.8,29.94,South,169,4.0,7.0,48,0.00,,---,0.00,VWS V14.01,2012-09-07 14:23:00,
2012-09-07 08:28:00,55.3,35.4,29.94,SSE,159,0.0,4.0,47,0.00,,---,0.00,VWS V14.01,2012-09-07 14:28:00,
2012-09-07 08:33:00,55.4,35.5,29.95,ESE,118,1.0,7.0,47,0.00,,---,0.00,VWS V14.01,2012-09-07 14:33:00,
2012-09-07 08:38:00,55.5,35.6,29.95,SSE,160,1.0,5.0,47,0.00,,---,0.00,VWS V14.01,2012-09-07 14:38:00,
2012-09-07 08:43:00,56.0,36.1,29.94,South,190,1.0,9.0,47,0.00,,---,0.00,VWS V14.01,2012-09-07 14:43:00,
2012-09-07 08:48:00,56.6,36.1,29.93,SSE,153,0.0,11.0,46,0.00,,---,0.00,VWS V14.01,2012-09-07 14:48:00,
2012-09-07 08:53:00,56.9,35.8,29.93,SSE,156,4.0,11.0,45,0.00,,---,0.00,VWS V14.01,2012-09-07 14:53:00,
2012-09-07 08:58:00,57.1,36.0,29.93,East,94,0.0,7.0,45,0.00,,---,0.00,VWS V14.01,2012-09-07 14:58:00,
2012-09-07 09:03:00,57.0,35.3,29.94,South,180,0.0,11.0,44,0.00,,---,0.00,VWS V14.01,2012-09-07 15:03:00,
2012-09-07 09:09:00,57.1,36.0,30.01,South,187,0.0,2.0,45,0.00,,---,0.00,VWS V14.01,2012-09-07 15:09:00,
2012-09-07 09:14:00,57.3,36.2,30.01,SSE,158,0.0,4.0,45,0.00,,---,0.00,VWS V14.01,2012-09-07 15:14:00,
2012-09-07 09:19:00,57.6,35.9,30.00,SSE,155,0.0,2.0,44,0.00,,---,0.00,VWS V14.01,2012-09-07 15:19:00,
2012-09-07 09:24:00,58.1,36.3,30.00,South,173,0.0,0.0,44,0.00,,---,0.00,VWS V14.01,2012-09-07 15:24:00,
2012-09-07 09:29:00,58.3,36.5,30.00,South,190,12.0,12.0,44,0.00,,---,0.00,VWS V14.01,2012-09-07 15:29:00,
2012-09-07 09:34:00,58.0,36.2,30.00,SSW,196,5.0,8.0,44,0.00,,---,0.00,VWS V14.01,2012-09-07 15:34:00,
2012-09-07 09:39:00,58.0,36.2,30.00,South,184,6.0,10.0,44,0.00,,---,0.00,VWS V14.01,2012-09-07 15:39:00,
2012-09-07 09:44:00,58.4,37.2,30.00,South,179,10.0,10.0,45,0.00,,---,0.00,VWS V14.01,2012-09-07 15:44:00,
2012-09-07 09:49:00,58.5,36.7,30.00,SSW,198,10.0,13.0,44,0.00,,---,0.00,VWS V14.01,2012-09-07 15:49:00,
2012-09-07 09:57:00,59.0,36.6,30.00,South,188,2.0,9.0,43,0.00,,---,0.00,VWS V14.01,2012-09-07 15:57:00,
2012-09-07 10:02:00,59.2,37.3,29.99,SSW,192,0.0,8.0,44,0.00,,---,0.00,VWS V14.01,2012-09-07 16:02:00,
2012-09-07 10:07:00,59.7,37.2,29.95,South,191,1.0,11.0,43,0.00,,---,0.00,VWS V14.01,2012-09-07 16:07:00,
2012-09-07 10:12:00,59.5,37.0,29.95,South,191,0.0,13.0,43,0.00,,---,0.00,VWS V14.01,2012-09-07 16:12:00,
2012-09-07 10:20:00,60.2,37.6,29.96,SW,217,9.0,14.0,43,0.00,,---,0.00,VWS V14.01,2012-09-07 16:20:00,
2012-09-07 10:25:00,60.6,38.0,29.95,South,186,1.0,6.0,43,0.00,,---,0.00,VWS V14.01,2012-09-07 16:25:00,
2012-09-07 10:30:00,61.6,38.3,29.93,South,186,7.0,13.0,42,0.00,,---,0.00,VWS V14.01,2012-09-07 16:30:00,
2012-09-07 10:35:00,61.5,37.6,29.93,SSW,201,4.0,8.0,41,0.00,,---,0.00,VWS V14.01,2012-09-07 16:35:00,
2012-09-07 10:40:00,61.3,38.0,29.94,SSW,204,4.0,7.0,42,0.00,,---,0.00,VWS V14.01,2012-09-07 16:40:00,
2012-09-07 10:46:00,61.7,38.4,29.92,South,186,9.0,9.0,42,0.00,,---,0.00,VWS V14.01,2012-09-07 16:46:00,
2012-09-07 10:51:00,61.9,38.0,29.92,SSW,204,0.0,9.0,41,0.00,,---,0.00,VWS V14.01,2012-09-07 16:51:00,
2012-09-07 10:56:00,62.0,38.0,29.93,SW,229,4.0,10.0,41,0.00,,---,0.00,VWS V14.01,2012-09-07 16:56:00,
2012-09-07 11:01:00,62.9,38.2,29.93,SSW,205,0.0,5.0,40,0.00,,---,0.00,VWS V14.01,2012-09-07 17:01:00,
2012-09-07 11:06:00,63.3,38.6,29.93,South,190,7.0,7.0,40,0.00,,---,0.00,VWS V14.01,2012-09-07 17:06:00,
2012-09-07 11:11:00,64.0,39.2,29.94,SSW,207,0.0,6.0,40,0.00,,---,0.00,VWS V14.01,2012-09-07 17:11:00,
2012-09-07 11:16:00,64.9,38.7,29.92,SE,129,0.0,6.0,38,0.00,,---,0.00,VWS V14.01,2012-09-07 17:16:00,
2012-09-07 11:21:00,65.4,38.5,29.92,South,188,1.0,6.0,37,0.00,,---,0.00,VWS V14.01,2012-09-07 17:21:00,
2012-09-07 11:26:00,64.9,38.0,29.92,SSW,193,0.0,6.0,37,0.00,,---,0.00,VWS V14.01,2012-09-07 17:26:00,
2012-09-07 11:31:00,65.3,39.1,29.92,ESE,117,0.0,5.0,38,0.00,,---,0.00,VWS V14.01,2012-09-07 17:31:00,
2012-09-07 11:40:00,67.0,38.5,29.90,ESE,113,4.0,4.0,35,0.00,,---,0.00,VWS V14.01,2012-09-07 17:40:00,
2012-09-07 11:45:00,65.5,37.9,29.92,ESE,109,1.0,1.0,36,0.00,,---,0.00,VWS V14.01,2012-09-07 17:45:00,
2012-09-07 11:50:00,65.7,38.0,29.92,NNE,19,5.0,6.0,36,0.00,,---,0.00,VWS V14.01,2012-09-07 17:50:00,
2012-09-07 11:55:00,65.8,38.1,29.92,West,277,0.0,5.0,36,0.00,,---,0.00,VWS V14.01,2012-09-07 17:55:00,
2012-09-07 12:00:00,67.0,38.5,29.90,West,276,0.0,6.0,35,0.00,,---,0.00,VWS V14.01,2012-09-07 18:00:00,
2012-09-07 12:05:00,66.9,38.4,29.92,WSW,251,0.0,8.0,35,0.00,,---,0.00,VWS V14.01,2012-09-07 18:05:00,
2012-09-07 12:10:00,66.9,38.4,29.91,WSW,254,7.0,7.0,35,0.00,,---,0.00,VWS V14.01,2012-09-07 18:10:00,
2012-09-07 12:16:00,66.9,39.1,29.91,WSW,254,7.0,7.0,36,0.00,,---,0.00,VWS V14.01,2012-09-07 18:16:00,
2012-09-07 12:21:00,66.7,38.9,29.91,West,265,5.0,9.0,36,0.00,,---,0.00,VWS V14.01,2012-09-07 18:21:00,
2012-09-07 12:26:00,65.9,38.2,29.92,West,264,2.0,5.0,36,0.00,,---,0.00,VWS V14.01,2012-09-07 18:26:00,
2012-09-07 12:31:00,65.7,38.7,29.93,West,276,2.0,8.0,37,0.00,,---,0.00,VWS V14.01,2012-09-07 18:31:00,
2012-09-07 12:36:00,65.7,38.0,29.92,West,277,7.0,7.0,36,0.00,,---,0.00,VWS V14.01,2012-09-07 18:36:00,
2012-09-07 12:41:00,65.6,38.0,29.92,West,277,2.0,7.0,36,0.00,,---,0.00,VWS V14.01,2012-09-07 18:41:00,
2012-09-07 12:46:00,65.7,38.7,29.92,West,277,1.0,6.0,37,0.00,,---,0.00,VWS V14.01,2012-09-07 18:46:00,
2012-09-07 12:51:00,65.2,38.3,29.91,West,277,0.0,4.0,37,0.00,,---,0.00,VWS V14.01,2012-09-07 18:51:00,
2012-09-07 12:56:00,65.1,38.2,29.91,West,277,0.0,5.0,37,0.00,,---,0.00,VWS V14.01,2012-09-07 18:56:00,
2012-09-07 13:01:00,65.1,38.9,29.91,West,277,6.0,8.0,38,0.00,,---,0.00,VWS V14.01,2012-09-07 19:01:00,
2012-09-07 13:06:00,65.6,38.7,29.91,West,277,0.0,7.0,37,0.00,,---,0.00,VWS V14.01,2012-09-07 19:06:00,
2012-09-07 13:11:00,66.4,38.7,29.91,West,277,4.0,6.0,36,0.00,,---,0.00,VWS V14.01,2012-09-07 19:11:00,
2012-09-07 13:16:00,67.3,39.5,29.90,West,277,5.0,6.0,36,0.00,,---,0.00,VWS V14.01,2012-09-07 19:16:00,
2012-09-07 13:21:00,68.1,40.2,29.88,West,277,5.0,5.0,36,0.00,,---,0.00,VWS V14.01,2012-09-07 19:21:00,
2012-09-07 13:26:00,68.4,39.7,29.88,West,277,6.0,7.0,35,0.00,,---,0.00,VWS V14.01,2012-09-07 19:26:00,
2012-09-07 13:31:00,68.6,39.1,29.88,West,277,5.0,6.0,34,0.00,,---,0.00,VWS V14.01,2012-09-07 19:31:00,
2012-09-07 13:36:00,68.9,40.2,29.88,West,280,3.0,7.0,35,0.00,,---,0.00,VWS V14.01,2012-09-07 19:36:00,
2012-09-07 13:41:00,69.2,39.7,29.88,West,281,5.0,6.0,34,0.00,,---,0.00,VWS V14.01,2012-09-07 19:41:00,
2012-09-07 13:46:00,69.4,39.8,29.88,WNW,283,1.0,7.0,34,0.00,,---,0.00,VWS V14.01,2012-09-07 19:46:00,
2012-09-07 13:51:00,69.3,39.8,29.87,WNW,284,1.0,9.0,34,0.00,,---,0.00,VWS V14.01,2012-09-07 19:51:00,
2012-09-07 13:56:00,69.5,39.9,29.86,WNW,284,1.0,4.0,34,0.00,,---,0.00,VWS V14.01,2012-09-07 19:56:00,
2012-09-07 14:01:00,70.7,40.2,29.85,West,281,6.0,9.0,33,0.00,,---,0.00,VWS V14.01,2012-09-07 20:01:00,
2012-09-07 14:06:00,70.6,39.3,29.86,WNW,295,2.0,6.0,32,0.00,,---,0.00,VWS V14.01,2012-09-07 20:06:00,
2012-09-07 14:11:00,70.0,39.6,29.85,NW,315,5.0,10.0,33,0.00,,---,0.00,VWS V14.01,2012-09-07 20:11:00,
2012-09-07 14:16:00,69.0,39.5,29.87,WNW,286,8.0,9.0,34,0.00,,---,0.00,VWS V14.01,2012-09-07 20:16:00,
2012-09-07 14:21:00,69.8,40.2,29.85,WNW,294,1.0,6.0,34,0.00,,---,0.00,VWS V14.01,2012-09-07 20:21:00,
2012-09-07 14:26:00,69.8,39.4,29.85,NW,322,4.0,12.0,33,0.00,,---,0.00,VWS V14.01,2012-09-07 20:26:00,
2012-09-07 14:31:00,70.6,39.3,29.85,NNW,331,5.0,9.0,32,0.00,,---,0.00,VWS V14.01,2012-09-07 20:31:00,
2012-09-07 14:36:00,70.2,39.8,29.85,NW,306,9.0,9.0,33,0.00,,---,0.00,VWS V14.01,2012-09-07 20:36:00,
2012-09-07 14:42:00,70.1,38.9,29.85,NW,321,11.0,12.0,32,0.00,,---,0.00,VWS V14.01,2012-09-07 20:42:00,
2012-09-07 14:47:00,68.9,39.4,29.87,NW,321,7.0,11.0,34,0.00,,---,0.00,VWS V14.01,2012-09-07 20:47:00,
2012-09-07 14:52:00,69.7,39.3,29.86,NW,323,0.0,11.0,33,0.00,,---,0.00,VWS V14.01,2012-09-07 20:52:00,
2012-09-07 14:57:00,69.2,38.9,29.87,NW,326,1.0,11.0,33,0.00,,---,0.00,VWS V14.01,2012-09-07 20:57:00,
2012-09-07 15:02:00,69.2,38.9,29.88,NE,41,11.0,11.0,33,0.00,,---,0.00,VWS V14.01,2012-09-07 21:02:00,
2012-09-07 15:07:00,68.2,38.8,29.86,NE,46,11.0,12.0,34,0.00,,---,0.00,VWS V14.01,2012-09-07 21:07:00,
2012-09-07 15:12:00,67.2,37.9,29.87,ENE,58,3.0,11.0,34,0.00,,---,0.00,VWS V14.01,2012-09-07 21:12:00,
2012-09-07 15:17:00,66.6,38.1,29.87,NE,51,7.0,13.0,35,0.00,,---,0.00,VWS V14.01,2012-09-07 21:17:00,
2012-09-07 15:22:00,66.3,37.8,29.87,ENE,65,6.0,13.0,35,0.00,,---,0.00,VWS V14.01,2012-09-07 21:22:00,
2012-09-07 15:27:00,66.0,38.3,29.88,NE,53,10.0,14.0,36,0.00,,---,0.00,VWS V14.01,2012-09-07 21:27:00,
2012-09-07 15:32:00,65.8,38.1,29.88,ENE,67,8.0,13.0,36,0.00,,---,0.00,VWS V14.01,2012-09-07 21:32:00,
2012-09-07 15:38:00,65.3,37.7,29.90,NE,53,9.0,13.0,36,0.00,,---,0.00,VWS V14.01,2012-09-07 21:38:00,
2012-09-07 15:42:00,65.3,38.4,29.90,NE,53,5.0,9.0,37,0.00,,---,0.00,VWS V14.01,2012-09-07 21:42:00,
2012-09-07 15:47:00,65.5,37.9,29.88,NE,48,7.0,10.0,36,0.00,,---,0.00,VWS V14.01,2012-09-07 21:47:00,
2012-09-07 15:53:00,65.2,38.3,29.90,ENE,62,1.0,8.0,37,0.00,,---,0.00,VWS V14.01,2012-09-07 21:53:00,
2012-09-07 15:58:00,65.2,38.3,29.89,NE,55,7.0,7.0,37,0.00,,---,0.00,VWS V14.01,2012-09-07 21:58:00,
2012-09-07 16:03:00,65.6,38.7,29.88,NNE,24,3.0,6.0,37,0.00,,---,0.00,VWS V14.01,2012-09-07 22:03:00,
2012-09-07 16:08:00,65.6,39.3,29.89,NE,53,5.0,9.0,38,0.00,,---,0.00,VWS V14.01,2012-09-07 22:08:00,
2012-09-07 16:13:00,65.5,38.6,29.88,NE,49,1.0,11.0,37,0.00,,---,0.00,VWS V14.01,2012-09-07 22:13:00,
2012-09-07 16:18:00,65.2,39.0,29.88,NE,56,10.0,11.0,38,0.00,,---,0.00,VWS V14.01,2012-09-07 22:18:00,
2012-09-07 16:23:00,65.6,39.3,29.88,NE,51,5.0,9.0,38,0.00,,---,0.00,VWS V14.01,2012-09-07 22:23:00,
2012-09-07 16:28:00,66.7,39.6,29.87,ENE,72,6.0,16.0,37,0.00,,---,0.00,VWS V14.01,2012-09-07 22:28:00,
2012-09-07 16:33:00,67.0,39.2,29.87,NE,54,8.0,14.0,36,0.00,,---,0.00,VWS V14.01,2012-09-07 22:33:00,
2012-09-07 16:38:00,66.5,39.5,29.87,NE,52,2.0,12.0,37,0.00,,---,0.00,VWS V14.01,2012-09-07 22:38:00,
2012-09-07 16:43:00,66.3,39.3,29.88,East,81,3.0,10.0,37,0.00,,---,0.00,VWS V14.01,2012-09-07 22:43:00,
2012-09-07 16:48:00,66.2,39.2,29.88,NE,49,11.0,11.0,37,0.00,,---,0.00,VWS V14.01,2012-09-07 22:48:00,
2012-09-07 16:53:00,66.0,39.0,29.89,ENE,65,5.0,14.0,37,0.00,,---,0.00,VWS V14.01,2012-09-07 22:53:00,
2012-09-07 16:58:00,65.8,38.1,29.89,ENE,62,7.0,14.0,36,0.00,,---,0.00,VWS V14.01,2012-09-07 22:58:00,
2012-09-07 17:03:00,65.8,38.8,29.90,ENE,72,5.0,15.0,37,0.00,,---,0.00,VWS V14.01,2012-09-07 23:03:00,
2012-09-07 17:08:00,65.8,38.8,29.89,East,92,3.0,5.0,37,0.00,,---,0.00,VWS V14.01,2012-09-07 23:08:00,
2012-09-07 17:13:00,65.7,39.4,29.88,ENE,65,5.0,7.0,38,0.00,,---,0.00,VWS V14.01,2012-09-07 23:13:00,
2012-09-07 17:18:00,65.3,39.1,29.89,NE,49,6.0,6.0,38,0.00,,---,0.00,VWS V14.01,2012-09-07 23:18:00,
2012-09-07 17:24:00,65.2,39.0,29.89,NE,50,0.0,3.0,38,0.00,,---,0.00,VWS V14.01,2012-09-07 23:24:00,
2012-09-07 17:29:00,66.0,39.7,29.89,NE,50,0.0,1.0,38,0.00,,---,0.00,VWS V14.01,2012-09-07 23:29:00,
2012-09-07 17:34:00,66.0,39.0,29.90,SSW,210,6.0,6.0,37,0.00,,---,0.00,VWS V14.01,2012-09-07 23:34:00,
2012-09-07 17:39:00,65.8,38.8,29.89,SSW,206,7.0,8.0,37,0.00,,---,0.00,VWS V14.01,2012-09-07 23:39:00,
2012-09-07 17:44:00,66.1,39.8,29.90,SSW,196,3.0,6.0,38,0.00,,---,0.00,VWS V14.01,2012-09-07 23:44:00,
2012-09-07 17:49:00,66.1,39.1,29.90,South,179,8.0,9.0,37,0.00,,---,0.00,VWS V14.01,2012-09-07 23:49:00,
2012-09-07 17:54:00,65.9,38.9,29.90,SSW,192,5.0,9.0,37,0.00,,---,0.00,VWS V14.01,2012-09-07 23:54:00,
2012-09-07 17:59:00,65.8,39.5,29.90,South,172,5.0,7.0,38,0.00,,---,0.00,VWS V14.01,2012-09-07 23:59:00,
2012-09-07 18:04:00,65.8,39.5,29.90,SSW,194,0.0,4.0,38,0.00,,---,0.00,VWS V14.01,2012-09-08 00:04:00,
2012-09-07 18:09:00,65.7,39.4,29.94,ESE,123,4.0,7.0,38,0.00,,---,0.00,VWS V14.01,2012-09-08 00:09:00,
2012-09-07 18:14:00,65.2,39.0,29.96,South,186,4.0,12.0,38,0.00,,---,0.00,VWS V14.01,2012-09-08 00:14:00,
2012-09-07 18:19:00,64.9,39.4,29.96,South,182,1.0,1.0,39,0.00,,---,0.00,VWS V14.01,2012-09-08 00:19:00,
2012-09-07 18:24:00,64.7,38.5,29.96,SSW,192,1.0,8.0,38,0.00,,---,0.00,VWS V14.01,2012-09-08 00:24:00,
2012-09-07 18:29:00,64.1,38.7,29.97,South,188,1.0,1.0,39,0.00,,---,0.00,VWS V14.01,2012-09-08 00:29:00,
2012-09-07 18:34:00,63.7,39.0,29.98,South,181,2.0,2.0,40,0.00,,---,0.00,VWS V14.01,2012-09-08 00:34:00,
2012-09-07 18:39:00,63.2,38.5,30.00,SSE,165,1.0,1.0,40,0.00,,---,0.00,VWS V14.01,2012-09-08 00:39:00,
2012-09-07 18:44:00,62.9,38.9,30.00,ESE,119,2.0,5.0,41,0.00,,---,0.00,VWS V14.01,2012-09-08 00:44:00,
2012-09-07 18:49:00,62.7,39.3,30.00,SE,126,0.0,5.0,42,0.00,,---,0.00,VWS V14.01,2012-09-08 00:49:00,
2012-09-07 18:54:00,62.1,39.4,30.00,SE,129,0.0,0.0,43,0.00,,---,0.00,VWS V14.01,2012-09-08 00:54:00,
2012-09-07 18:59:00,61.4,39.3,30.00,SE,128,0.0,1.0,44,0.00,,---,0.00,VWS V14.01,2012-09-08 00:59:00,
2012-09-07 19:04:00,60.5,39.6,30.02,SE,132,0.0,2.0,46,0.00,,---,0.00,VWS V14.01,2012-09-08 01:04:00,
2012-09-07 19:09:00,59.8,39.5,30.01,SSE,161,0.0,0.0,47,0.00,,---,0.00,VWS V14.01,2012-09-08 01:09:00,
2012-09-07 19:14:00,59.2,39.5,30.01,SSE,158,1.0,6.0,48,0.00,,---,0.00,VWS V14.01,2012-09-08 01:14:00,
2012-09-07 19:19:00,59.0,39.9,30.01,SE,145,4.0,4.0,49,0.00,,---,0.00,VWS V14.01,2012-09-08 01:19:00,
2012-09-07 19:24:00,59.0,40.4,30.01,SE,144,4.0,4.0,50,0.00,,---,0.00,VWS V14.01,2012-09-08 01:24:00,
2012-09-07 19:29:00,58.6,39.5,30.02,SE,142,0.0,1.0,49,0.00,,---,0.00,VWS V14.01,2012-09-08 01:29:00,
2012-09-07 19:35:00,58.3,39.8,30.03,SE,142,0.0,0.0,50,0.00,,---,0.00,VWS V14.01,2012-09-08 01:35:00,
2012-09-07 19:40:00,58.1,39.6,30.04,SE,143,0.0,0.0,50,0.00,,---,0.00,VWS V14.01,2012-09-08 01:40:00,
2012-09-07 19:45:00,58.0,39.5,30.05,SE,143,0.0,0.0,50,0.00,,---,0.00,VWS V14.01,2012-09-08 01:45:00,
2012-09-07 19:50:00,58.0,39.5,30.05,SE,142,0.0,0.0,50,0.00,,---,0.00,VWS V14.01,2012-09-08 01:50:00,
2012-09-07 19:55:00,57.8,39.3,30.05,SE,143,0.0,0.0,50,0.00,,---,0.00,VWS V14.01,2012-09-08 01:55:00,
2012-09-07 20:00:00,57.7,39.2,30.06,SE,143,0.0,0.0,50,0.00,,---,0.00,VWS V14.01,2012-09-08 02:00:00,
2012-09-07 20:05:00,57.6,39.6,30.04,SE,143,4.0,4.0,51,0.00,,---,0.00,VWS V14.01,2012-09-08 02:05:00,
2012-09-07 20:10:00,57.5,40.0,30.04,SSW,194,0.0,8.0,52,0.00,,---,0.00,VWS V14.01,2012-09-08 02:10:00,
2012-09-07 20:15:00,57.3,39.8,30.04,SSW,199,3.0,8.0,52,0.00,,---,0.00,VWS V14.01,2012-09-08 02:15:00,
2012-09-07 20:20:00,57.1,39.7,30.05,SSW,200,0.0,0.0,52,0.00,,---,0.00,VWS V14.01,2012-09-08 02:20:00,
2012-09-07 20:25:00,56.9,40.0,30.05,SSW,198,0.0,5.0,53,0.00,,---,0.00,VWS V14.01,2012-09-08 02:25:00,
2012-09-07 20:30:00,56.7,40.3,30.06,South,186,4.0,9.0,54,0.00,,---,0.00,VWS V14.01,2012-09-08 02:30:00,
2012-09-07 20:35:00,56.6,40.2,30.06,South,188,1.0,7.0,54,0.00,,---,0.00,VWS V14.01,2012-09-08 02:35:00,
2012-09-07 20:41:00,56.7,40.3,30.07,South,188,5.0,5.0,54,0.00,,---,0.00,VWS V14.01,2012-09-08 02:41:00,
2012-09-07 20:46:00,56.7,40.3,30.07,South,188,1.0,6.0,54,0.00,,---,0.00,VWS V14.01,2012-09-08 02:46:00,
2012-09-07 20:51:00,56.7,40.7,30.07,South,189,4.0,9.0,55,0.00,,---,0.00,VWS V14.01,2012-09-08 02:51:00,
2012-09-07 20:56:00,56.6,40.6,30.07,SSW,203,1.0,5.0,55,0.00,,---,0.00,VWS V14.01,2012-09-08 02:56:00,
2012-09-07 21:01:00,56.6,40.6,30.07,SSW,200,0.0,7.0,55,0.00,,---,0.00,VWS V14.01,2012-09-08 03:01:00,
2012-09-07 21:06:00,56.6,40.6,30.06,SSW,205,6.0,8.0,55,0.00,,---,0.00,VWS V14.01,2012-09-08 03:06:00,
2012-09-07 21:11:00,56.5,40.5,30.06,South,190,0.0,6.0,55,0.00,,---,0.00,VWS V14.01,2012-09-08 03:11:00,